Station WASD2 - 8594900 - WASHINGTON- DC

Sailing guide
Sailing guide
english français italiano spagnolo
english français italiano español
Sea - Seek
Station WASD2 - 8594900 - WASHINGTON- DC
Station WASD2 - 8594900 - WASHINGTON- DC

Weather report - Station WASD2 - 8594900 - WASHINGTON- DC

Time Wind speed knots Wind direction Pressure ----
August 28, 2015 1:30 pm EDT 3 270 1022 Air Temperature:26.4
August 28, 2015 12:48 pm EDT 3 310 1022 Air Temperature:26.5
August 28, 2015 11:48 am EDT 4 330 1023 Air Temperature:26.2
August 28, 2015 10:48 am EDT 4 190 1023 Air Temperature:24.3
August 28, 2015 9:48 am EDT 2 300 1023 Air Temperature:24.2
August 28, 2015 8:48 am EDT 1 20 1022 Air Temperature:23.7
August 28, 2015 7:48 am EDT 1 120 1022 Air Temperature:21.2
August 28, 2015 6:48 am EDT 2 110 1021 Air Temperature:19.3
August 28, 2015 5:48 am EDT 2 130 1021 Air Temperature:19.6
August 28, 2015 4:48 am EDT 0 1021 Air Temperature:20.4
August 28, 2015 3:48 am EDT 0 1021 Air Temperature:20.9
August 28, 2015 2:30 am EDT 1 220 1021 Air Temperature:20.9
August 28, 2015 12:48 am EDT 0 1021 Air Temperature:21.6
August 27, 2015 11:48 pm EDT 0 1021 Air Temperature:22.5
August 27, 2015 10:48 pm EDT 2 120 1021 Air Temperature:23.1
August 27, 2015 9:48 pm EDT 1 70 1020 Air Temperature:23.7
August 27, 2015 8:48 pm EDT 4 30 1019 Air Temperature:24.6
August 27, 2015 7:48 pm EDT 4 360 1019 Air Temperature:25.5
August 27, 2015 6:48 pm EDT 5 360 1018 Air Temperature:26.7
August 27, 2015 5:48 pm EDT 7 330 1018 Air Temperature:26.4
August 27, 2015 4:48 pm EDT 3 360 1018 Air Temperature:27.1
August 27, 2015 3:30 pm EDT 5 340 1018 Air Temperature:26.2